Погода в Бешпельтире

Россия / Республика Алтай     51°37′43″N   85°59′35″E
темп.,
°C
ветер,
м/с
пор.,
м/с
влажн.,
%
обл.,
%
осадки,
мм/ч
давл.,
гПа
погр.,
м
20 мая, пт
пт2001:00+14ю238599 1.8 101547
04:00+11ю118979 0.1 101716
07:00+13ююв118486 0.4 101758
10:00+15св117172 0.4 1018214
13:00+22ссз134074 0.4 10162179
16:00+20ссз444498 0.1 10152050
19:00+15юв237721 0.5 101676
22:00+12ю228322 0.2 101728
21 мая, сб
сб2101:00+11ю338426 0.2 101846
04:00+10ю348549 0.0 101857
07:00+11ю257960 0.0 1018112
10:00+19ю1248100 0.0 1016541
13:00+24с11308 0.0 10141671
16:00+24ссв33290 0.0 10111741
19:00+22св36430 0.0 1010644
22:00+14в116349 0.0 101010
22 мая, вс
вс2201:00+13ююв2267100 0.0 100723
04:00+12ю3376100 0.0 100555
07:00+14ю2471100 0.0 100489
10:00+20ю3549100 0.0 1002227
13:00+22зсз1250100 0.0 1004531
16:00+23юв0143100 0.0 100389
19:00+17вюв11688 0.3 100512
22:00+15ююв227488 0.0 100727
23 мая, пн
пн2301:00+13зюз229180 0.7 101121
04:00+14зсз2496100 0.9 1014228
07:00+11сз5993100 5.1 1020834
10:00+9с1191100 1.1 1024283
13:00+8ссв1193100 4.6 1024337
16:00+11всв1285100 0.1 1022423
19:00+12ссв1276100 0.1 1021609
22:00+8в119530 0.0 102110
24 мая, вт
вт2401:00+7юв1197100 0.0 102011
04:00+7ююв2197100 0.0 101919
07:00+10ю118892 0.0 101890
10:00+17ссв116380 0.0 1016553
13:00+20ссв2251100 0.0 1014980
16:00+22с3350100 0.0 10131205
19:00+19ссз2469100 0.0 1013367
22:00+13ссз019298 0.0 101511